Location: Bjelajci
(45.0103°N, 16.1758°E)
Time: 04:30:23
(UTC+00:00)

SL-8 R/B - Pass Details

Date: 14 July 2020
Orbit: 656 x 668 km, 48.4° (Epoch: 11 August)

Event Time Altitude Azimuth Distance (km) Brightness Sun altitude
Exits shadow 01:46:36 - 269° (W) 2,284 6.1 -13.5°
Reaches altitude 10° 01:47:08 10° 271° (W) 2,083 5.9 -13.4°
Maximum altitude 01:51:54 60° 351° (N) 757 4.2 -12.9°
Drops below altitude 10° 01:56:39 10° 72° (ENE) 2,078 7.2 -12.3°
Sets 01:59:01 0° 76° (ENE) 2,989 8.1 -12.0°
